AMOS-3

Last updated on Sun Jun 21 2026 00:03:04 GMT+0000 (Coordinated Universal Time)

1 32794U 08022A 26171.18631704 .00000128 00000+0 00000+0 0 9993 2 32794 0.4641 86.1836 0002140 70.0111 220.3951 1.00478427 82365
UTC large
Height (km)
Speed (km/s)
/
Latitude / Longitude
Inclination (degrees)
Orbital Period (minutes)
Azimuth
Elevation
Range (km)
Doppler Factor

Next 0 passes for location: London (51.5072 / 0.1276)

No passes found over London.
AMOS-3